FW9692 Weather Reports


time (UTC)temp
F
wind
direction
speed
knots
gust
knots
rain 1hr
in
rain 24hr
in
rain mn
in
humidity
%
barometer
mb
20260504044527 69 142 13.0 17.4 0.00 0.00 0.00 49 1002.4
20260504043024 70 136 15.6 20.0 0.00 0.00 0.00 48 1002.4
20260504041528 70 139 14.8 20.9 0.00 0.00 0.00 47 1002.6
20260504040024 71 144 14.8 19.1 0.00 0.00 0.00 46 1002.7
20260504034521 71 139 14.8 18.2 0.00 0.00 0.00 45 1002.8
20260504033022 72 138 15.6 19.1 0.00 0.00 0.00 44 1002.8
20260504031532 72 135 15.6 19.1 0.00 0.00 0.00 43 1002.6
20260504030039 73 138 14.8 19.1 0.00 0.00 0.00 42 1002.4
20260504024531 73 133 15.6 20.0 0.00 0.00 0.00 41 1002.4
20260504023032 74 135 13.9 19.1 0.00 0.00 0.00 41 1002.4
20260504021528 74 128 13.0 18.2 0.00 0.00 0.00 41 1002.5
20260504020025 75 134 14.8 19.1 0.00 0.00 0.00 40 1002.5
20260504014522 75 129 11.3 14.8 0.00 0.00 0.00 38 1002.6
20260504013022 76 134 10.4 13.9 0.00 0.00 0.00 38 1002.6
20260504011519 76 121 9.6 13.9 0.00 0.00 0.00 37 1002.7
20260504010017 77 134 8.7 13.9 0.00 0.00 0.00 37 1002.8
20260504004521 77 137 11.3 15.6 0.00 0.00 0.00 36 1002.8
20260504003014 77 135 10.4 13.0 0.00 0.00 0.00 36 1003.0
20260504001516 77 139 7.8 11.3 0.00 0.00 0.00 36 1003.2
20260504000014 77 124 9.6 12.2 0.00 0.00 0.00 36 1003.2
20260503234525 77 147 3.5 7.8 0.00 0.00 0.00 35 1003.5
20260503233012 77 135 4.3 7.8 0.00 0.00 0.00 35 1003.6
20260503231507 77 215 2.6 5.2 0.00 0.00 0.00 35 1003.9
20260503230004 77 230 6.1 9.6 0.00 0.00 0.00 35 1004.1
20260503224500 77 30 2.6 4.3 0.00 0.00 0.00 36 1004.3
20260503223059 77 139 7.8 11.3 0.00 0.00 0.00 35 1004.7
20260503221503 76 186 4.3 12.2 0.00 0.00 0.00 36 1004.9
20260503220005 77 182 7.0 8.7 0.00 0.00 0.00 35 1005.1
20260503214558 76 155 3.5 9.6 0.00 0.00 0.00 36 1005.4
20260503213107 75 131 3.5 9.6 0.00 0.00 0.00 36 1005.9
20260503211547 75 140 7.0 10.4 0.00 0.00 0.00 37 1006.2
20260503210046 75 232 2.6 7.0 0.00 0.00 0.00 37 1006.5
20260503204540 74 173 4.3 12.2 0.00 0.00 0.00 38 1006.8
20260503203037 73 189 4.3 9.6 0.00 0.00 0.00 38 1007.1
20260503201541 73 126 7.0 12.2 0.00 0.00 0.00 38 1007.3
20260503200042 72 223 7.0 10.4 0.00 0.00 0.00 40 1007.7
20260503194533 72 194 7.0 13.9 0.00 0.00 0.00 40 1008.1
20260503193034 71 161 7.0 9.6 0.00 0.00 0.00 42 1008.3
20260503191526 70 178 8.7 15.6 0.00 0.00 0.00 44 1008.6
20260503190027 70 137 6.1 13.0 0.00 0.00 0.00 45 1008.7
20260503184520 70 133 7.8 13.9 0.00 0.00 0.00 46 1009.4
20260503183021 69 165 7.8 13.9 0.00 0.00 0.00 46 1009.7
20260503181521 69 111 4.3 10.4 0.00 0.00 0.00 48 1009.8
20260503180020 68 137 4.3 13.9 0.00 0.00 0.00 49 1010.2
20260503174515 67 137 7.8 11.3 0.00 0.00 0.00 51 1010.2
20260503173014 67 187 3.5 9.6 0.00 0.00 0.00 54 1010.7
20260503171504 66 111 4.3 10.4 0.00 0.00 0.00 54 1011.2